15min,AgWx,evansfrm,411,14APR2018:00:00:00,32.1,12.91,33.4,33.8,32.5,33.9,31.8,74,78,69,0.451,25.2,25.7,24.6,3.88,2.0,153,23,4.6,-0.00008,-0.00009,45.8,46.0,33,0,0,34.0,20.79,0.00,0.00
15min,AgWx,evansfrm,411,14APR2018:00:15:00,31.7,12.9,33.8,34.0,33.5,34.2,32.5,71,76,68,0.460,25.2,25.9,24.3,3.924,2.3,174,31,4.4,-0.00006,-0.00007,45.6,45.5,32,0,0,34.6,20.79,0.00,0.00
15min,AgWx,evansfrm,411,14APR2018:00:30:00,31.4,12.9,31.1,31.3,32.4,34.1,31.2,76,81,68,0.482,25.6,26.2,24.7,1.381,2.5,166,15,4.3,-0.00006,-0.00007,45.3,45.7,33,0,0,34.1,20.79,0.00,0.00
15min,AgWx,evansfrm,411,14APR2018:00:45:00,31.0,12.89,32.2,32.3,32.1,33.2,31.2,77,81,71,0.466,25.6,26.3,24.8,4.056,3.6,164,16,5.5,-0.00003,-0.00003,45.2,45.7,32,0,0,33.7,20.79,0.00,0.00
15min,AgWx,evansfrm,411,14APR2018:01:00:00,30.8,12.88,32.4,32.6,32.3,32.8,31.6,75,79,73,0.461,25.3,25.8,24.9,2.368,3.5,176,17,5.4,-0.00003,-0.00002,45.1,45.7,32,0,0,33.8,20.79,0.00,0.00
15min,AgWx,evansfrm,411,14APR2018:01:15:00,30.5,12.88,31.3,31.2,32.2,32.8,31.2,75,79,72,0.468,25.2,25.7,24.7,2.543,2.2,181,20,3.2,-0.00008,-0.00009,44.9,45.5,33,0,0,33.6,20.79,0.00,0.00
15min,AgWx,evansfrm,411,14APR2018:01:30:00,30.3,12.87,31.5,31.9,31.5,31.9,31.2,78,81,76,0.464,25.5,26.0,25.0,2.674,3.5,159,9.7,4.7,-0.00004,-0.00004,44.7,45.5,33,0,0,33.2,20.79,0.00,0.00
15min,AgWx,evansfrm,411,14APR2018:01:45:00,30.1,12.86,32.4,32.3,32.1,33.4,30.9,75,79,70,0.464,25.2,25.5,24.6,5.283,3.8,156,10,5.7,-0.00002,-0.00001,44.6,45.5,33,0,0,33.8,20.79,0.00,0.00
15min,AgWx,evansfrm,411,14APR2018:02:00:00,30.2,12.85,32.1,32.4,32.4,32.8,32.0,73,75,72,0.451,24.8,25.2,24.5,4.297,5.2,151,14,6.4,0.00002,0.00004,44.4,45.5,33,0,0,34.4,20.79,0.00,0.00
15min,AgWx,evansfrm,411,14APR2018:02:15:00,30.2,12.85,32.4,33.0,32.6,33.6,31.6,72,75,69,0.448,24.6,24.9,24.1,4.034,3.5,145,21,4.4,-0.00002,-0.00001,44.4,45.3,33,0,0,34.8,20.79,0.00,0.00
15min,AgWx,evansfrm,411,14APR2018:02:30:00,30.1,12.84,30.7,30.7,31.6,32.9,30.7,76,79,71,0.459,25.0,25.5,24.3,2.916,3.4,167,23,5.1,-0.00004,-0.00003,44.1,45.1,32,0,0,33.9,20.79,0.00,0.00
15min,AgWx,evansfrm,411,14APR2018:02:45:00,30.0,12.84,32.0,32.4,30.7,32.4,29.8,80,82,74,0.461,25.1,25.4,24.8,1.798,1.2,162,55,2.9,-0.00013,-0.00017,43.9,45.0,32,0,0,33.9,20.79,0.00,0.00
15min,AgWx,evansfrm,411,14APR2018:03:00:00,30.5,12.83,31.5,31.6,31.8,32.5,31.4,80,83,74,0.496,26.4,27.0,25.2,0,1.0,34,71,3.1,-0.00014,-0.00019,43.9,45.0,32,0,0,37.1,20.79,0.00,0.00
15min,AgWx,evansfrm,411,14APR2018:03:15:00,31.1,12.82,33.3,33.3,32.8,33.9,31.4,77,82,73,0.504,26.3,27.4,25.2,0.855,0.9,191,23,3.5,-0.00015,-0.00020,43.7,44.8,32,0,0,38.5,20.79,0.00,0.00
15min,AgWx,evansfrm,411,14APR2018:03:30:00,31.8,12.82,33.4,33.8,33.5,33.8,33.0,75,79,73,0.478,26.6,27.3,25.8,0,0.3,331,27,1.5,-0.00019,-0.00029,43.6,45.0,32,0,0,39.2,20.78,0.00,0.00
15min,AgWx,evansfrm,411,14APR2018:03:45:00,32.3,12.82,33.5,33.6,33.8,34.0,33.6,76,79,73,0.497,27.1,28.1,25.9,1.14,0.5,269,52,2.0,-0.00018,-0.00027,43.5,44.8,33,0,0,39.3,20.78,0.00,0.00
15min,AgWx,evansfrm,411,14APR2018:04:00:00,32.5,12.81,34.0,34.1,33.8,34.4,33.4,78,81,75,0.513,27.6,28.3,26.7,2.916,1.5,340,42,3.2,-0.00012,-0.00015,43.3,44.6,32,0,0,38.2,20.78,0.00,0.00
15min,AgWx,evansfrm,411,14APR2018:04:15:00,32.9,12.8,34.1,34.2,34.0,34.4,33.6,78,80,76,0.505,27.8,28.3,27.4,1.885,1.9,6.9,9.2,3.2,-0.00010,-0.00012,43.2,44.8,32,0,0,39.0,20.78,0.00,0.00
15min,AgWx,evansfrm,411,14APR2018:04:30:00,33.4,12.8,34.2,34.4,34.4,34.7,34.2,77,80,74,0.533,27.9,28.7,27.2,0.855,2.0,283,38,4.0,-0.00009,-0.00011,43.3,44.4,32,0,0,39.2,20.78,0.00,0.00
15min,AgWx,evansfrm,411,14APR2018:04:45:00,33.7,12.8,33.8,33.9,34.0,34.4,33.7,81,83,78,0.527,28.7,29.4,28.0,2.959,1.7,207,49,3.0,-0.00011,-0.00015,43.2,44.4,32,0,0,39.1,20.78,0.00,0.00
15min,AgWx,evansfrm,411,14APR2018:05:00:00,33.9,12.79,34.1,34.2,34.1,34.4,33.9,79,81,77,0.528,28.3,28.7,27.7,2.302,2.4,92,14,3.5,-0.00008,-0.00010,43.1,44.2,32,0,0,39.2,20.78,0.00,0.00
15min,AgWx,evansfrm,411,14APR2018:05:15:00,34.1,12.78,34.6,34.8,34.4,34.8,34.1,77,80,72,0.490,28.1,28.9,26.6,2.214,2.1,67,10,2.8,-0.00009,-0.00011,42.9,44.2,32,0,0,39.5,20.79,0.00,0.00
15min,AgWx,evansfrm,411,14APR2018:05:30:00,34.3,12.77,34.9,35.1,35.0,35.1,34.8,72,74,70,0.501,26.9,27.6,26.2,2.346,1.6,47,12,2.8,-0.00011,-0.00013,42.9,44.2,32,0,0,39.9,20.78,0.00,0.00
15min,AgWx,evansfrm,411,14APR2018:05:45:00,34.5,12.77,34.9,35.1,35.0,35.2,34.8,73,75,72,0.503,27.4,27.9,26.8,0,0.6,31,8.8,2.7,-0.00017,-0.00025,42.9,44.2,32,1,0,40.3,20.78,0.00,0.00
15min,AgWx,evansfrm,411,14APR2018:06:00:00,34.6,12.76,34.8,35.0,35.0,35.2,34.8,75,76,72,0.514,27.7,28.2,26.9,0,0.6,304,18,2.4,-0.00017,-0.00024,42.9,44.2,32,3,0,40.4,20.78,0.00,0.00
15min,AgWx,evansfrm,411,14APR2018:06:15:00,34.8,12.76,35.0,35.1,35.0,35.2,34.8,75,78,73,0.513,27.9,28.8,27.3,2.521,1.7,345,65,5.0,0.00004,0.00009,42.7,43.9,32,10,0,40.3,20.79,0.00,0.00
15min,AgWx,evansfrm,411,14APR2018:06:30:00,34.9,12.77,34.8,34.8,34.9,35.1,34.6,78,80,75,0.546,28.7,29.3,27.7,1.206,1.5,75,59,2.8,0.00002,0.00007,42.8,43.7,32,28,0,40.8,20.79,0.00,0.00
15min,AgWx,evansfrm,411,14APR2018:06:45:00,35.2,12.78,35.4,35.6,35.2,35.6,34.7,78,83,74,0.521,29.0,30.2,27.9,1.469,1.2,339,26,3.4,0.00012,0.00016,42.8,43.9,32,46,0,41.8,20.78,0.00,0.00
15min,AgWx,evansfrm,411,14APR2018:07:00:00,35.7,12.79,36.1,36.3,35.9,36.3,35.4,74,76,69,0.507,28.3,29.3,27.2,0.153,1.3,14,28,2.4,0.00024,0.00030,42.7,43.7,32,63,0,43.7,20.78,0.00,0.00
15min,AgWx,evansfrm,411,14APR2018:07:15:00,36.1,12.78,36.5,36.8,36.5,36.8,36.3,71,74,69,0.530,28.1,28.9,27.1,0,0.9,13,10,2.8,0.00030,0.00036,42.7,43.9,32,68,0,43.9,20.78,0.00,0.00
15min,AgWx,evansfrm,411,14APR2018:07:30:00,36.9,12.87,37.5,37.3,37.0,37.3,36.7,68,72,65,0.503,27.5,28.5,26.5,2.126,1.7,325,15,3.9,0.00050,0.00061,42.7,43.7,32,124,0,47.2,20.78,0.00,0.00
15min,AgWx,evansfrm,411,14APR2018:07:45:00,38.1,12.93,38.8,38.3,37.8,38.4,37.3,66,69,64,0.500,27.5,28.2,26.9,0.592,1.5,320,21,3.1,0.00060,0.00071,42.7,43.9,32,140,0,49.3,20.78,0.00,0.00
15min,AgWx,evansfrm,411,14APR2018:08:00:00,39.5,13.04,39.1,38.7,38.7,39.2,38.2,66,69,63,0.554,28.4,29.8,26.9,0.943,1.5,286,23,3.1,0.00077,0.00089,42.7,43.5,32,180,0,52.8,20.78,0.00,0.00
15min,AgWx,evansfrm,411,14APR2018:08:15:00,40.6,13.14,39.2,39.1,38.8,39.1,38.5,72,74,69,0.560,30.5,31.5,29.6,0.263,1.7,249,22,3.0,0.00079,0.00091,42.7,43.7,32,177,0,52.8,20.78,0.00,0.00
15min,AgWx,evansfrm,411,14APR2018:08:30:00,42.0,13.31,40.2,40.1,39.7,40.1,39.0,67,73,62,0.520,29.6,31.6,27.6,1.337,0.8,159,70,1.8,0.00098,0.00109,42.7,43.7,32,223,0,57.7,20.78,0.00,0.00
15min,AgWx,evansfrm,411,14APR2018:08:45:00,43.4,13.56,41.0,40.9,40.4,40.9,40.0,63,66,61,0.561,28.9,29.9,28.0,0.592,1.0,125,43,2.4,0.00118,0.00132,42.8,43.3,32,264,0,60.1,20.78,0.00,0.00
15min,AgWx,evansfrm,411,14APR2018:09:00:00,45.2,13.69,41.8,41.4,41.4,41.9,41.1,61,65,59,0.541,29.1,30.9,27.9,2.126,1.5,219,49,3.3,0.00136,0.00154,43.0,43.5,32,293,0,62.6,20.78,0.00,0.00
15min,AgWx,evansfrm,411,14APR2018:09:15:00,46.2,13.76,42.9,42.5,41.8,42.5,41.4,62,66,60,0.606,29.9,32.0,28.7,0.855,1.7,255,30,3.6,0.00134,0.00152,43.1,43.3,32,277,0,59.8,20.78,0.00,0.00
15min,AgWx,evansfrm,411,14APR2018:09:30:00,47.7,13.81,43.3,43.4,42.9,43.4,42.4,61,64,59,0.590,30.3,31.8,29.4,1.118,1.0,129,62,3.3,0.00152,0.00168,43.2,43.5,32,315,0,65.8,20.78,0.00,0.00
15min,AgWx,evansfrm,411,14APR2018:09:45:00,49.2,13.97,44.3,43.8,43.4,43.9,42.9,60,63,58,0.571,30.5,31.9,29.6,1.03,1.6,131,34,3.8,0.00180,0.00202,43.3,43.3,32,375,0,67.9,20.78,0.00,0.00
15min,AgWx,evansfrm,411,14APR2018:10:00:00,50.9,13.88,45.1,44.9,44.5,45.2,43.8,58,63,57,0.638,30.7,33.1,29.7,0.504,1.4,153,33,3.7,0.00189,0.00211,43.6,43.3,32,380,0,71.3,20.78,0.00,0.00
15min,AgWx,evansfrm,411,14APR2018:10:15:00,51.6,13.75,45.4,44.8,44.8,45.0,44.5,58,63,54,0.574,30.7,33.1,29.3,2.061,2.2,257,27,4.7,0.00161,0.00186,43.8,43.3,32,302,0,65.1,20.78,0.00,0.00
15min,AgWx,evansfrm,411,14APR2018:10:30:00,52.0,13.72,46.1,45.6,45.1,45.6,44.7,55,59,52,0.593,29.8,31.7,28.6,0,1.3,248,60,3.0,0.00162,0.00182,43.9,43.5,32,304,0,65.7,20.78,0.00,0.00
15min,AgWx,evansfrm,411,14APR2018:10:45:00,52.6,13.79,46.2,45.8,45.8,46.5,45.3,54,60,51,0.596,30.3,32.9,28.9,0.986,1.4,240,57,3.3,0.00174,0.00195,44.2,43.3,32,325,0,68.3,20.78,0.00,0.00
15min,AgWx,evansfrm,411,14APR2018:11:00:00,53.6,13.93,47.2,47.2,46.3,47.2,45.8,53,59,50,0.587,30.2,32.5,28.6,2.236,1.7,170,63,5.2,0.00208,0.00234,44.5,43.3,32,393,0,70.5,20.78,0.00,0.00
15min,AgWx,evansfrm,411,14APR2018:11:15:00,54.7,14.22,47.9,48.0,47.1,48.0,46.6,48,53,43,0.588,28.5,31.1,25.4,3.288,3.0,184,41,6.1,0.00246,0.00286,44.7,43.7,32,463,0,71.6,20.78,0.00,0.00
15min,AgWx,evansfrm,411,14APR2018:11:30:00,55.7,14.34,47.6,47.8,47.8,48.3,47.3,46,54,42,0.492,28.2,32.0,25.4,3.135,4.5,163,32,7.6,0.00285,0.00339,45.0,43.5,32,538,0,71.9,20.78,0.00,0.00
15min,AgWx,evansfrm,411,14APR2018:11:45:00,56.6,14.49,48.3,48.4,48.2,48.9,47.6,46,52,42,0.534,28.3,31.8,26.1,4.735,4.6,190,22,9.1,0.00276,0.00330,45.3,43.9,32,506,0,71.7,20.78,0.00,0.00
15min,AgWx,evansfrm,411,14APR2018:12:00:00,57.1,14.5,49.9,50.0,49.3,50.4,48.4,47,53,43,0.560,29.8,33.4,27.1,4.494,5.8,149,32,9.3,0.00376,0.00444,45.5,43.7,32,745,0,72.6,20.78,0.00,0.00
15min,AgWx,evansfrm,411,14APR2018:12:15:00,57.7,14.43,51.0,51.0,50.4,51.4,49.5,44,49,39,0.496,29.1,32.6,26.6,1.337,4.9,162,37,9.9,0.00463,0.00534,45.8,43.9,32,920,0,79.0,20.78,0.00,0.00
15min,AgWx,evansfrm,411,14APR2018:12:30:00,58.7,14.45,51.3,51.7,51.0,52.0,50.4,41,48,38,0.528,28.3,32.8,25.8,10.35,4.1,205,40,10.4,0.00465,0.00532,46.2,43.7,32,902,0,85.2,20.78,0.00,0.00
15min,AgWx,evansfrm,411,14APR2018:12:45:00,58.9,14.44,50.7,50.6,50.6,51.7,50.1,42,48,39,0.490,28.2,32.5,26.4,1.271,4.6,212,37,10.4,0.00297,0.00359,46.6,43.7,32,514,0,71.9,20.78,0.00,0.00
15min,AgWx,evansfrm,411,14APR2018:13:00:00,59.1,14.39,51.6,51.4,51.4,52.5,50.6,42,47,38,0.551,28.9,32.8,26.5,5.809,3.6,223,71,8.8,0.00336,0.00391,47.0,43.9,32,604,0,74.9,20.78,0.00,0.00
15min,AgWx,evansfrm,411,14APR2018:13:15:00,59.3,14.42,52.4,52.1,51.9,53.2,50.8,42,49,38,0.513,29.6,34.4,27.2,2.302,4.0,147,46,7.7,0.00341,0.00400,47.4,44.1,32,610,0,74.5,20.78,0.00,0.00
15min,AgWx,evansfrm,411,14APR2018:13:30:00,59.6,14.43,52.1,52.2,52.0,52.5,51.4,42,46,39,0.556,29.4,32.2,27.7,5.941,3.1,260,59,6.3,0.00321,0.00372,47.8,44.2,32,576,0,74.5,20.78,0.00,0.00
15min,AgWx,evansfrm,411,14APR2018:13:45:00,59.8,14.42,51.6,51.7,52.1,52.8,51.7,41,45,37,0.523,28.9,31.9,26.4,1.776,4.5,220,32,9.4,0.00342,0.00407,48.4,44.2,32,607,0,74.5,20.78,0.00,0.00
15min,AgWx,evansfrm,411,14APR2018:14:00:00,60.8,14.41,52.7,52.7,52.9,54.2,51.8,41,48,37,0.575,29.7,33.6,27.0,5.261,3.0,137,54,6.8,0.00418,0.00476,48.7,44.4,32,779,0,82.4,20.78,0.00,0.00
15min,AgWx,evansfrm,411,14APR2018:14:15:00,61.8,14.38,53.1,53.3,53.3,54.3,52.3,41,46,38,0.525,29.9,33.7,28.0,2.916,3.1,221,61,5.9,0.00405,0.00464,49.1,44.6,32,750,0,81.4,20.78,0.00,0.00
15min,AgWx,evansfrm,411,14APR2018:14:30:00,63.1,14.35,53.7,53.5,53.6,54.5,53.0,40,44,37,0.543,29.6,32.9,27.4,4.034,3.2,244,84,8.9,0.00405,0.00465,49.4,44.6,32,750,0,81.4,20.78,0.00,0.00
15min,AgWx,evansfrm,411,14APR2018:14:45:00,64.1,14.33,54.1,53.6,53.6,54.7,52.7,39,43,37,0.545,29.3,32.3,27.5,3.749,2.5,310,41,7.1,0.00299,0.00346,49.8,44.8,32,523,0,77.9,20.78,0.00,0.00
15min,AgWx,evansfrm,411,14APR2018:15:00:00,63.8,14.32,53.2,52.5,52.9,53.5,52.5,39,44,37,0.516,28.6,31.7,27.2,1.337,4.0,358,27,6.2,0.00254,0.00311,50.3,45.0,32,408,0,70.8,20.79,0.00,0.00
15min,AgWx,evansfrm,411,14APR2018:15:15:00,63.6,14.33,54.4,53.2,53.0,53.7,52.5,39,42,36,0.545,28.6,30.9,27.1,2.543,2.6,303,24,5.8,0.00245,0.00289,50.6,45.1,32,417,0,71.2,20.79,0.00,0.00
15min,AgWx,evansfrm,411,14APR2018:15:30:00,63.3,14.36,54.6,54.6,53.4,54.6,52.7,39,41,37,0.572,28.9,30.5,27.8,0.263,1.9,342,35,4.0,0.00225,0.00262,50.9,45.3,32,393,0,72.2,20.78,0.00,0.00
15min,AgWx,evansfrm,411,14APR2018:15:45:00,64.6,14.31,54.9,54.2,55.0,55.9,54.1,39,43,36,0.586,30.5,33.5,28.9,3.288,3.0,252,42,5.5,0.00311,0.00364,51.2,45.7,32,560,0,79.2,20.78,0.00,0.00
15min,AgWx,evansfrm,411,14APR2018:16:00:00,63.6,14.32,53.7,53.7,53.5,54.4,53.1,39,42,37,0.541,29.3,31.4,28.1,1.447,4.1,220,30,9.2,0.00184,0.00238,51.5,45.7,32,260,0,66.6,20.79,0.00,0.00
15min,AgWx,evansfrm,411,14APR2018:16:15:00,62.7,14.37,53.4,53.8,53.7,54.2,53.3,38,41,36,0.535,28.7,30.6,27.6,5.152,2.7,183,70,6.9,0.00174,0.00215,51.7,45.7,32,277,0,68.1,20.79,0.00,0.00
15min,AgWx,evansfrm,411,14APR2018:16:30:00,62.3,14.35,53.6,53.8,53.9,54.8,53.5,38,41,36,0.521,28.9,31.3,27.5,3.749,4.5,144,45,6.9,0.00229,0.00290,51.9,46.0,32,384,0,68.8,20.79,0.00,0.00
15min,AgWx,evansfrm,411,14APR2018:16:45:00,61.5,13.76,53.3,53.3,53.9,54.5,53.3,39,43,36,0.536,29.4,32.1,27.5,5.853,4.7,178,43,8.1,0.00166,0.00225,52.1,46.4,32,219,0,64.6,20.79,0.00,0.00
15min,AgWx,evansfrm,411,14APR2018:17:00:00,60.2,14.19,53.8,54.2,53.6,54.2,53.2,40,43,38,0.555,29.7,31.6,28.1,3.354,4.2,205,35,9.1,0.00140,0.00192,52.2,46.2,32,178,0,60.8,20.79,0.00,0.00
15min,AgWx,evansfrm,411,14APR2018:17:15:00,59.3,13.55,53.5,53.5,53.8,54.4,53.4,38,42,36,0.585,29.0,31.2,27.6,3.113,3.4,254,21,5.2,0.00121,0.00165,52.4,46.6,32,157,0,61.1,20.79,0.00,0.00
15min,AgWx,evansfrm,411,14APR2018:17:30:00,58.4,13.54,53.5,53.6,53.5,53.7,53.2,39,42,37,0.592,29.2,31.4,27.5,3.31,2.8,218,18,5.3,0.00104,0.00142,52.5,46.6,32,150,0,61.3,20.79,0.00,0.00
15min,AgWx,evansfrm,411,14APR2018:17:45:00,57.7,13.4,53.0,53.1,53.2,53.7,52.9,40,42,38,0.534,29.6,31.3,28.2,2.872,4.7,225,15,6.8,0.00110,0.00164,52.6,46.6,32,125,0,59.6,20.79,0.00,0.00
15min,AgWx,evansfrm,411,14APR2018:18:00:00,56.8,13.23,52.8,53.0,53.0,53.2,52.8,40,43,37,0.528,29.0,31.1,27.6,3.836,3.5,225,16,6.1,0.00081,0.00122,52.5,46.9,32,99,0,58.4,20.79,0.00,0.00
15min,AgWx,evansfrm,411,14APR2018:18:15:00,56.1,13.23,53.4,53.9,53.4,54.0,52.9,39,42,38,0.543,29.3,30.8,27.9,0,1.4,249,28,3.3,0.00034,0.00053,52.6,46.9,32,113,0,58.4,20.79,0.00,0.00
15min,AgWx,evansfrm,411,14APR2018:18:30:00,55.7,13.15,52.7,53.0,53.5,54.2,53.0,38,41,37,0.515,28.8,30.9,27.8,1.535,2.2,216,17,4.2,0.00022,0.00047,52.5,46.9,32,94,0,58.5,20.79,0.00,0.00
15min,AgWx,evansfrm,411,14APR2018:18:45:00,54.8,13.1,51.8,52.0,52.4,53.1,51.9,41,44,37,0.560,29.4,31.0,27.7,1.71,2.4,207,12,3.6,-0.00001,0.00024,52.5,47.5,32,41,0,55.4,20.79,0.00,0.00
15min,AgWx,evansfrm,411,14APR2018:19:00:00,53.4,13.07,51.0,51.1,51.6,52.1,51.1,42,44,40,0.540,29.4,30.4,28.6,2.17,1.7,205,12,2.7,-0.00017,-0.00001,52.4,47.3,32,16,0,52.8,20.79,0.00,0.00
15min,AgWx,evansfrm,411,14APR2018:19:15:00,52.0,13.05,48.0,48.4,50.5,51.3,48.4,45,51,41,0.585,29.9,31.9,28.6,2.346,2.0,181,22,3.0,0.00016,0.00024,52.4,47.5,32,3,0,51.1,20.79,0.00,0.00
15min,AgWx,evansfrm,411,14APR2018:19:30:00,50.5,13.04,45.5,45.7,47.1,48.9,45.2,55,62,49,0.630,31.7,33.3,30.3,4.362,3.8,113,21,5.6,0.00021,0.00029,52.2,47.5,32,0,0,48.9,20.79,0.00,0.00
15min,AgWx,evansfrm,411,14APR2018:19:45:00,49.2,13.03,46.7,46.8,46.5,47.1,45.8,57,60,54,0.595,32.0,32.9,31.1,5.459,5.1,93,4.7,6.2,0.00025,0.00033,52.2,47.8,32,0,0,48.2,20.79,0.00,0.00
15min,AgWx,evansfrm,411,14APR2018:20:00:00,48.3,13.02,46.4,46.4,46.8,47.4,46.3,53,55,51,0.582,30.7,31.3,30.0,3.968,4.9,102,4.9,6.4,0.00027,0.00035,52.0,47.5,32,0,0,48.4,20.79,0.00,0.00
15min,AgWx,evansfrm,411,14APR2018:20:15:00,47.3,13.01,45.4,45.9,45.4,46.3,44.8,58,61,55,0.601,31.7,32.3,30.8,3.025,3.1,150,23,3.9,0.00015,0.00022,51.8,47.7,32,0,0,47.1,20.79,0.00,0.00
15min,AgWx,evansfrm,411,14APR2018:20:30:00,46.4,13,45.3,45.6,45.2,45.9,44.4,59,61,56,0.583,31.5,32.2,30.7,3.639,3.1,133,20,4.3,0.00015,0.00022,51.6,47.5,32,0,0,46.9,20.79,0.00,0.00
15min,AgWx,evansfrm,411,14APR2018:20:45:00,46.1,12.99,46.1,46.1,46.8,47.5,45.8,53,57,51,0.595,30.7,31.6,30.1,2.828,4.3,115,14,6.6,0.00024,0.00033,51.4,47.8,32,0,0,48.5,20.79,0.00,0.00
15min,AgWx,evansfrm,411,14APR2018:21:00:00,45.7,12.99,45.6,45.9,45.9,46.4,45.3,57,59,54,0.587,31.3,32.2,30.6,2.74,2.9,157,15,3.6,0.00015,0.00022,51.2,47.7,32,0,0,47.9,20.79,0.00,0.00
15min,AgWx,evansfrm,411,14APR2018:21:15:00,45.4,12.98,45.5,45.8,45.6,46.0,44.9,57,60,55,0.587,31.4,32.5,30.5,0.417,1.8,160,25,3.5,0.00008,0.00013,51.1,47.5,32,0,0,47.7,20.79,0.00,0.00
15min,AgWx,evansfrm,411,14APR2018:21:30:00,45.0,12.97,44.1,44.3,45.1,46.0,44.0,60,65,54,0.621,31.9,33.2,30.2,1.14,2.2,193,36,5.4,0.00010,0.00015,50.9,47.7,32,0,0,47.1,20.79,0.00,0.00
15min,AgWx,evansfrm,411,14APR2018:21:45:00,44.4,12.97,43.3,43.8,44.0,44.5,43.7,62,63,61,0.600,31.9,32.6,31.5,0,0.5,105,27,3.2,-0.00003,-0.00004,50.8,47.5,32,0,0,46.2,20.79,0.00,0.00
15min,AgWx,evansfrm,411,14APR2018:22:00:00,43.7,12.97,42.1,42.3,43.0,43.9,42.3,66,69,62,0.626,32.5,33.2,31.6,0.373,0.3,345,32,1.7,-0.00005,-0.00008,50.5,47.8,32,0,0,45.8,20.79,0.00,0.00
15min,AgWx,evansfrm,411,14APR2018:22:15:00,43.2,12.91,42.2,42.5,42.5,43.1,42.1,70,71,68,0.644,33.4,33.8,32.7,1.337,1.4,7.3,15,2.8,0.00002,0.00003,50.3,47.8,32,0,0,45.1,20.79,0.00,0.00
15min,AgWx,evansfrm,411,14APR2018:22:30:00,42.5,12.96,41.4,41.6,42.2,42.6,41.6,70,71,68,0.632,33.0,33.4,32.4,1.556,0.2,39,29,1.6,-0.00006,-0.00009,50.1,47.5,32,0,0,44.4,20.79,0.00,0.00
15min,AgWx,evansfrm,411,14APR2018:22:45:00,41.8,12.95,41.1,41.4,41.4,41.8,40.8,71,73,70,0.630,32.8,33.2,32.5,1.315,0.3,54,11,1.8,-0.00005,-0.00008,50.1,47.7,32,0,0,43.7,20.79,0.00,0.00
15min,AgWx,evansfrm,411,14APR2018:23:00:00,41.3,12.89,40.5,40.7,41.2,41.6,40.7,72,74,71,0.622,32.9,33.3,32.4,1.184,0.4,343,45,1.7,-0.00005,-0.00007,49.8,47.7,32,0,0,43.8,20.79,0.00,0.00
15min,AgWx,evansfrm,411,14APR2018:23:15:00,40.8,12.94,39.6,39.7,40.4,41.3,39.6,77,83,71,0.689,33.6,35.0,32.4,0.526,1.2,221,39,2.4,-0.00001,-0.00001,49.7,47.8,32,0,0,43.4,20.79,0.00,0.00
15min,AgWx,evansfrm,411,14APR2018:23:30:00,40.6,12.93,41.5,41.3,41.5,42.5,39.6,72,83,67,0.631,33.0,35.0,32.1,3.047,2.5,172,38,4.8,0.00006,0.00009,49.5,47.5,32,0,0,44.0,20.79,0.00,0.00
15min,AgWx,evansfrm,411,14APR2018:23:45:00,40.8,12.89,41.3,41.4,41.0,41.6,40.4,74,76,72,0.633,33.2,33.6,32.7,1.732,2.3,53,31,3.6,0.00004,0.00007,49.4,47.7,32,0,0,44.7,20.79,0.00,0.00
15min,AgWx,drainfrm,410,14APR2018:00:00:00,32.8,12.74,32.4,33.1,33.2,34.6,32.3,89,93,82,0.569,30.2,30.6,29.7,2.609,3.3,151,19,6.1,-0.00003,-0.00003,43.3,43.0,61,0,100,33.7,18.86,0.00,0.00
15min,AgWx,drainfrm,410,14APR2018:00:15:00,32.3,12.74,32.7,33.2,33.0,33.2,32.9,89,89,88,0.566,30.1,30.2,29.9,4.779,3.0,175,6.4,4.8,-0.00004,-0.00004,43.2,43.3,61,0,100,33.3,18.86,0.00,0.00
15min,AgWx,drainfrm,410,14APR2018:00:30:00,32.0,12.73,33.3,34.0,33.4,34.0,33.0,87,89,83,0.555,29.8,30.3,29.3,4.691,4.2,157,7.1,5.5,-0.00001,-0.00000,43.1,43.0,61,0,100,33.7,18.85,0.00,0.00
15min,AgWx,drainfrm,410,14APR2018:00:45:00,31.9,12.72,31.5,31.9,33.3,34.9,31.9,85,93,79,0.565,29.4,30.1,29.0,1.074,3.4,141,11,5.2,-0.00002,-0.00001,43.1,43.0,61,0,100,33.9,18.85,0.00,0.00
15min,AgWx,drainfrm,410,14APR2018:01:00:00,31.4,12.72,32.6,33.5,32.1,33.5,31.5,92,95,86,0.557,30.0,30.5,29.4,3.595,1.7,128,45,3.9,-0.00007,-0.00010,43.0,42.8,61,0,100,32.5,18.85,0.00,0.00
15min,AgWx,drainfrm,410,14APR2018:01:15:00,31.2,12.71,31.8,32.3,33.2,34.2,32.3,86,90,81,0.552,29.3,29.9,28.6,2.368,3.1,153,11,4.6,-0.00002,-0.00002,43.0,43.2,61,0,100,33.4,18.85,0.00,0.00
15min,AgWx,drainfrm,410,14APR2018:01:30:00,30.8,12.71,31.2,32.0,32.0,32.4,31.5,91,94,89,0.564,29.6,30.1,29.2,2.411,2.1,174,41,2.9,-0.00006,-0.00007,42.8,43.0,61,0,100,32.5,18.85,0.00,0.00
15min,AgWx,drainfrm,410,14APR2018:01:45:00,30.5,12.71,31.3,31.9,32.0,32.4,31.8,90,93,87,0.547,29.4,30.1,28.9,2.192,2.8,173,9.8,3.5,-0.00004,-0.00005,42.8,43.0,61,0,100,32.4,18.85,0.00,0.00
15min,AgWx,drainfrm,410,14APR2018:02:00:00,30.2,12.7,30.9,31.3,31.7,32.0,31.3,92,95,90,0.557,29.5,30.4,29.0,2.587,2.7,180,17,3.7,-0.00005,-0.00006,42.7,43.3,61,0,100,32.2,18.86,0.00,0.00
15min,AgWx,drainfrm,410,14APR2018:02:15:00,30.0,12.71,32.2,32.8,32.1,32.9,31.3,90,94,86,0.547,29.4,29.8,29.0,3.332,3.1,178,7.4,3.8,-0.00004,-0.00004,42.5,42.8,61,0,100,32.5,18.85,0.00,0.00
15min,AgWx,drainfrm,410,14APR2018:02:30:00,30.0,12.7,30.8,31.4,32.3,32.9,31.3,88,94,86,0.558,29.3,29.8,28.9,0.197,2.3,187,50,3.8,-0.00005,-0.00006,42.6,43.2,61,0,100,33.1,18.85,0.00,0.00
15min,AgWx,drainfrm,410,14APR2018:02:45:00,29.8,12.7,31.5,32.3,32.2,32.7,31.3,90,94,87,0.557,29.6,30.1,29.2,0.811,0.6,164,14,1.5,-0.00010,-0.00015,42.5,42.8,61,0,100,33.8,18.85,0.00,0.00
15min,AgWx,drainfrm,410,14APR2018:03:00:00,30.1,12.69,31.0,31.5,31.9,32.2,31.5,96,100,90,0.597,30.9,31.7,29.6,1.359,1.7,52,25,3.3,-0.00008,-0.00011,42.3,42.8,61,0,100,35.4,18.85,0.00,0.00
15min,AgWx,drainfrm,410,14APR2018:03:15:00,30.3,12.68,30.5,31.2,31.0,31.7,30.6,100,100,98,0.578,30.9,31.6,30.5,1.863,2.4,296,26,5.3,-0.00008,-0.00010,42.2,42.8,61,0,100,33.6,18.85,0.00,0.00
15min,AgWx,drainfrm,410,14APR2018:03:30:00,30.4,12.68,31.4,31.9,31.7,32.1,31.2,95,98,93,0.572,30.4,31.1,30.0,2.411,3.0,336,49,6.9,-0.00006,-0.00007,42.1,42.8,61,0,100,35.0,18.85,0.00,0.00
15min,AgWx,drainfrm,410,14APR2018:03:45:00,30.7,12.68,31.6,32.1,32.3,32.9,32.0,92,94,89,0.578,30.4,30.7,29.7,2.455,3.0,284,22,5.7,-0.00005,-0.00006,42.1,42.8,61,0,100,35.2,18.85,0.00,0.00
15min,AgWx,drainfrm,410,14APR2018:04:00:00,30.8,12.68,30.8,31.2,31.6,32.1,31.2,97,99,94,0.584,30.8,31.0,30.5,3.069,3.3,284,8.6,4.0,-0.00006,-0.00007,42.1,42.6,61,0,100,34.3,18.85,0.00,0.00
15min,AgWx,drainfrm,410,14APR2018:04:15:00,31.0,12.67,31.3,32.0,31.8,32.1,31.2,97,99,95,0.589,31.0,31.3,30.7,2.192,2.2,300,14,3.4,-0.00007,-0.00009,41.9,43.0,61,0,100,35.4,18.85,0.00,0.00
15min,AgWx,drainfrm,410,14APR2018:04:30:00,31.3,12.66,32.3,32.9,32.9,33.1,32.0,98,100,95,0.622,32.4,33.0,31.1,0.438,1.3,10,19,2.4,-0.00009,-0.00013,42.0,42.8,61,0,100,37.0,18.85,0.00,0.00
15min,AgWx,drainfrm,410,14APR2018:04:45:00,31.6,12.66,32.6,33.1,33.1,33.3,32.9,99,100,98,0.637,32.8,33.2,32.3,1.513,1.0,27,28,1.7,-0.00010,-0.00014,41.9,42.8,61,0,100,37.7,18.85,0.00,0.00
15min,AgWx,drainfrm,410,14APR2018:05:00:00,31.9,12.66,32.5,33.0,33.1,33.2,32.9,100,100,100,0.634,33.0,33.1,32.8,2.499,2.3,68,7.3,3.5,-0.00008,-0.00010,41.9,42.6,61,0,100,36.8,18.85,0.00,0.00
15min,AgWx,drainfrm,410,14APR2018:05:15:00,32.1,12.66,32.3,32.8,32.9,33.1,32.8,100,100,100,0.629,32.8,33.0,32.7,2.433,2.9,73,13,3.9,-0.00008,-0.00009,41.9,42.4,61,0,100,35.6,18.85,0.00,0.00
15min,AgWx,drainfrm,410,14APR2018:05:30:00,32.0,12.65,32.1,32.7,32.7,32.9,32.4,100,100,100,0.627,32.6,32.8,32.3,3.091,1.9,105,13,3.1,-0.00009,-0.00011,41.9,42.6,61,0,100,34.9,18.85,0.00,0.00
15min,AgWx,drainfrm,410,14APR2018:05:45:00,31.9,12.65,32.5,33.0,32.9,33.1,32.6,100,100,99,0.630,32.8,33.0,32.5,0,1.3,65,22,3.3,-0.00009,-0.00013,41.8,42.4,61,1,100,35.9,18.85,0.00,0.00
15min,AgWx,drainfrm,410,14APR2018:06:00:00,32.1,12.65,33.4,34.0,33.5,34.1,32.9,98,100,94,0.634,32.8,33.1,32.3,2.083,1.4,45,25,2.7,-0.00008,-0.00011,41.7,42.6,61,4,100,37.8,18.85,0.00,0.00
15min,AgWx,drainfrm,410,14APR2018:06:15:00,32.3,12.64,32.9,33.4,33.7,34.0,33.2,97,100,94,0.639,33.0,33.9,32.0,3.266,2.5,25,50,4.1,-0.00012,-0.00012,41.7,42.4,61,15,100,37.7,18.85,0.00,0.00
15min,AgWx,drainfrm,410,14APR2018:06:30:00,32.5,12.66,32.6,33.2,33.1,33.4,32.8,100,100,99,0.635,33.0,33.3,32.7,4.604,2.9,340,39,8.3,-0.00005,-0.00006,41.6,42.4,61,33,100,37.0,18.84,0.00,0.00
15min,AgWx,drainfrm,410,14APR2018:06:45:00,32.8,12.67,32.6,33.1,33.1,33.4,32.9,100,100,99,0.635,33.0,33.3,32.8,3.003,4.0,345,17,6.1,0.00006,0.00007,41.5,42.4,61,50,100,37.2,18.84,0.00,0.00
15min,AgWx,drainfrm,410,14APR2018:07:00:00,33.2,12.69,32.8,33.1,33.5,34.3,32.9,97,100,93,0.629,32.8,33.2,32.2,3.464,3.8,345,19,5.7,0.00016,0.00019,41.5,42.4,61,64,100,37.9,18.85,0.00,0.00
15min,AgWx,drainfrm,410,14APR2018:07:15:00,33.9,12.77,33.8,33.7,33.1,33.7,32.7,100,100,99,0.647,32.9,33.5,32.6,3.157,4.4,12,9.9,6.0,0.00025,0.00027,41.4,42.3,61,111,100,37.2,18.85,0.00,0.00
15min,AgWx,drainfrm,410,14APR2018:07:30:00,39.5,13.01,36.8,35.9,35.0,36.0,33.8,94,99,91,0.666,33.5,34.2,32.7,2.959,3.4,1.3,9.9,4.8,0.00067,0.00074,41.4,42.4,61,259,100,43.2,18.84,0.00,0.00
15min,AgWx,drainfrm,410,14APR2018:07:45:00,45.6,13.28,38.9,38.5,37.4,38.5,36.0,84,93,79,0.642,32.9,34.4,32.1,1.754,2.9,17,10,4.3,0.00114,0.00127,41.3,42.3,61,349,100,50.1,18.84,0.00,0.00